2024-149AJ

Last updated on Mon Sep 16 2024 00:02:03 GMT+0000 (Coordinated Universal Time)

1 60500U 24149AJ 24258.89861372 .00018646 00000+0 90121-3 0 9996 2 60500 97.4416 334.0147 0005179 34.0748 326.0818 15.18660715 4411
UTC large
Height (km)
Speed (km/s)
/
Latitude / Longitude
Inclination (degrees)
Orbital Period (minutes)
Azimuth
Elevation
Range (km)
Doppler Factor

Next 0 passes for location: London (51.5072 / 0.1276)

Sorry there are no passes over London.